sat.trackr.live / text

‹ back to catalog

STARLINK-34112

NORAD 63969 · 2025-099T

PAYLOAD ACTIVE UNKNOWN

§ Identity

Operator
Country
US
Launch date
2025-05-13
Launch site
AFETR
Launch vehicle
Mass (kg)
RCS (m²)

Purposes: comms

External: N2YO · Heavens-Above · Gunter

§ Orbital elements

Epoch: 2026-09-20T10:19:28.754688Z

Period
94.27 min
Inclination
43.0028°
Eccentricity
0.0001793
Mean motion
15.27587864 rev/d
Perigee alt
481.8 km
Apogee alt
484.3 km
Semi-major
6,861.2 km
B*
3.9371e-4
RAAN
156.0545°
Arg perigee
276.1960°
Mean anomaly
83.8687°
Rev number
7,712

§ Raw data

STARLINK-341121 63969U 25099T   26263.43019392  .00010590  00000+0  39371-3 0  99982 63969  43.0028 156.0545 0001793 276.1960  83.8687 15.27587864 77129

JSON: /api/v1/satellites/63969 · /tle

For live sub-satellite position, see the globe view (requires WebGL).

§ Visibility from observer

Set your observer location to see the next 7 days of passes ≥ 10°. The values pass through the URL so the page stays shareable.

No JS? Fill the form by hand. The geolocation button needs JavaScript.